星链-30186 (STARLINK-30186 )

导读 | 豆包AI

STARLINK-30186是美国SpaceX公司星链(Starlink)星座的卫星,于2023年7月28日发射入轨,属于低地球轨道通信卫星,服务于全球卫星宽带互联网项目。星链通过大规模低轨星座组网,为偏远地区、基础设施匮乏区域提供高速宽带接入,该卫星是星链扩容组网的一部分,延续星链V1.5版本配置,支持星间激光通信,助力实现全球覆盖与低延迟网络服务。

基本信息
目录编号:
57470
目录名称:
STARLINK-30186
国际标识:
2023-107P
轨道中心:
EARTH
卫星名称:
星链-30186
卫星全名:
星链-30186 (STARLINK-30186 )
卫星状态:
在轨 (已飞行1007 天)
发射日期:
2023-07-28 UTC
国别 :
美国 (US)
星等 :
--
轨道信息
数据来源 国际轨道数据
星历时间: 2026-04-30T12:00:01+0800
12小时前
查看轨道信息
半长轴: 6879.843km
偏心率: 0.000246
轨道倾角: 43.001°
近地点辐角 263.803°
升交点赤经 52.880°
平近点角 39.363°
近地点: 500.013km
远地点: 503.399km
周期: 94.651分钟
每日圈数: 15.213706
详细信息
固有亮度:
5
最大亮度:
0.3
卫星平台:
Starlink v2.0 mini
覆盖范围:
全球
运营商:
太空探索技术公司
运营商所在国:
美国
制造商(研发单位):
太空探索技术公司
制造商所在国:
美国
使用方式:
暂无
卫星简介
星链(Starlink)计划是由太空探索技术公司(SpaceX)提出的一个巨型低轨卫星互联网星座项目,计划在2019年至2024年间在太空搭建由约1.2万颗卫星组成的“星链”网络,其中1584颗将部署在地球上空550千米处的近地轨道,并从2020年开始工作。该卫星仍在工作。
2D轨道图
3D轨道图
轨道高度分析图
轨道倾角分析图
轨道综合分析图
查看轨道综合分析图